User: anonymous   Login
Location: Unspecified
(0.0000°N, 0.0000°E)
Time: 17:17:29
(UTC+00:00)
Language:

Tiros 1 despin weight - Orbit

View from above orbital plane
View from above orbital plane
View from above satellite
View from above satellite

Ground track
Ground track

The orbit data is extracted from the following two-line orbital elements,

1 00115U 60002D   21105.70546196  .00000127  00000-0  42053-4 0  9990
2 00115  48.1660 260.6667 0034260 141.9110 218.4234 14.83742726236693
Epoch (UTC): 15 April 2021 16:55:51
Eccentricity: 0.0034260
inclination: 48.1660°
perigee height: 593 km
apogee height: 641 km
right ascension of ascending node: 260.6667°
argument of perigee: 141.9110°
revolutions per day: 14.83742726
mean anomaly at epoch: 218.4234°
orbit number at epoch: 23669

The dashed part of the orbit path shows where the satellite is in the earth's shadow,  

DLR